Time,TemperatureF,DewpointF,PressureIn,WindDirection,WindDirectionDegrees,WindSpeedMPH,WindSpeedGustMPH,Humidity,HourlyPrecipIn,Conditions,Clouds,dailyrainin,SoftwareType,DateUTC
2013-03-10 00:02:00,46.0,-99.9,30.27,NNE,22,13.0,15.0,-999,-99.99,,,-99.99,,2013-03-10 05:02:00,
2013-03-10 00:11:00,46.0,-99.9,30.27,NNE,20,12.0,15.0,-999,-99.99,,,-99.99,,2013-03-10 05:11:00,
2013-03-10 00:22:00,46.0,-99.9,30.27,NNE,20,13.0,14.0,-999,-99.99,,,-99.99,,2013-03-10 05:22:00,
2013-03-10 00:32:00,46.0,-99.9,30.27,NNE,15,13.0,15.0,-999,-99.99,,,-99.99,,2013-03-10 05:32:00,
2013-03-10 00:42:00,46.0,-99.9,30.27,North,3,14.0,15.0,-999,-99.99,,,-99.99,,2013-03-10 05:42:00,
2013-03-10 00:52:00,46.0,-99.9,30.27,North,2,14.0,16.0,-999,-99.99,,,-99.99,,2013-03-10 05:52:00,
2013-03-10 01:02:00,46.0,-99.9,30.27,NNE,19,14.0,16.0,-999,-99.99,,,-99.99,,2013-03-10 06:02:00,
2013-03-10 01:11:00,46.0,-99.9,30.27,NNE,19,14.0,16.0,-999,-99.99,,,-99.99,,2013-03-10 06:11:00,
2013-03-10 01:22:00,46.0,-99.9,30.27,NNE,17,15.0,18.0,-999,-99.99,,,-99.99,,2013-03-10 06:22:00,
2013-03-10 01:32:00,46.0,-99.9,30.27,NNE,21,14.0,16.0,-999,-99.99,,,-99.99,,2013-03-10 06:32:00,
2013-03-10 01:42:00,46.0,-99.9,30.27,NNE,24,15.0,17.0,-999,-99.99,,,-99.99,,2013-03-10 06:42:00,
2013-03-10 01:52:00,46.0,-99.9,30.26,NNE,23,15.0,16.0,-999,-99.99,,,-99.99,,2013-03-10 06:52:00,
2013-03-10 03:02:00,46.0,-99.9,30.26,NNE,20,14.0,17.0,-999,-99.99,,,-99.99,,2013-03-10 07:02:00,
2013-03-10 03:11:00,46.0,-99.9,30.26,NNE,24,15.0,17.0,-999,-99.99,,,-99.99,,2013-03-10 07:11:00,
2013-03-10 03:21:00,46.0,-99.9,30.26,NNE,20,13.0,15.0,-999,-99.99,,,-99.99,,2013-03-10 07:21:00,
2013-03-10 03:32:00,46.0,-99.9,30.25,NNE,23,15.0,16.0,-999,-99.99,,,-99.99,,2013-03-10 07:32:00,
2013-03-10 03:42:00,46.0,-99.9,30.25,NNE,26,15.0,17.0,-999,-99.99,,,-99.99,,2013-03-10 07:42:00,
2013-03-10 03:52:00,46.0,-99.9,30.25,NNE,27,14.0,16.0,-999,-99.99,,,-99.99,,2013-03-10 07:52:00,
2013-03-10 04:02:00,46.0,-99.9,30.25,NNE,28,13.0,16.0,-999,-99.99,,,-99.99,,2013-03-10 08:02:00,
2013-03-10 04:12:00,46.0,-99.9,30.24,NNE,27,15.0,17.0,-999,-99.99,,,-99.99,,2013-03-10 08:12:00,
2013-03-10 04:21:00,46.0,-99.9,30.24,NNE,27,14.0,18.0,-999,-99.99,,,-99.99,,2013-03-10 08:21:00,
2013-03-10 04:32:00,45.0,-99.9,30.24,NNE,27,13.0,16.0,-999,-99.99,,,-99.99,,2013-03-10 08:32:00,
2013-03-10 04:42:00,45.0,-99.9,30.24,NNE,31,13.0,16.0,-999,-99.99,,,-99.99,,2013-03-10 08:42:00,
2013-03-10 04:52:00,45.0,-99.9,30.24,NNE,29,13.0,16.0,-999,-99.99,,,-99.99,,2013-03-10 08:52:00,
2013-03-10 05:02:00,45.0,-99.9,30.24,NNE,27,12.0,15.0,-999,-99.99,,,-99.99,,2013-03-10 09:02:00,
2013-03-10 05:11:00,45.0,-99.9,30.25,NNE,26,13.0,14.0,-999,-99.99,,,-99.99,,2013-03-10 09:11:00,
2013-03-10 05:21:00,45.0,-99.9,30.24,NNE,28,13.0,15.0,-999,-99.99,,,-99.99,,2013-03-10 09:21:00,
2013-03-10 05:32:00,45.0,-99.9,30.24,NE,39,9.0,14.0,-999,-99.99,,,-99.99,,2013-03-10 09:32:00,
2013-03-10 05:42:00,45.0,-99.9,30.25,NE,39,9.0,14.0,-999,-99.99,,,-99.99,,2013-03-10 09:42:00,
2013-03-10 05:52:00,44.0,-99.9,30.25,NE,41,9.0,13.0,-999,-99.99,,,-99.99,,2013-03-10 09:52:00,
2013-03-10 06:02:00,45.0,-99.9,30.25,NE,34,10.0,13.0,-999,-99.99,,,-99.99,,2013-03-10 10:02:00,
2013-03-10 06:11:00,45.0,-99.9,30.25,NE,36,9.0,14.0,-999,-99.99,,,-99.99,,2013-03-10 10:11:00,
2013-03-10 06:22:00,45.0,-99.9,30.25,NE,36,9.0,13.0,-999,-99.99,,,-99.99,,2013-03-10 10:22:00,
2013-03-10 06:32:00,45.0,-99.9,30.25,NNE,30,11.0,14.0,-999,-99.99,,,-99.99,,2013-03-10 10:32:00,
2013-03-10 06:42:00,45.0,-99.9,30.25,NNE,30,11.0,14.0,-999,-99.99,,,-99.99,,2013-03-10 10:42:00,
2013-03-10 06:52:00,45.0,-99.9,30.26,NNE,24,11.0,13.0,-999,-99.99,,,-99.99,,2013-03-10 10:52:00,
2013-03-10 07:02:00,45.0,-99.9,30.26,NNE,29,12.0,14.0,-999,-99.99,,,-99.99,,2013-03-10 11:02:00,
2013-03-10 07:12:00,45.0,-99.9,30.26,NNE,31,12.0,14.0,-999,-99.99,,,-99.99,,2013-03-10 11:12:00,
2013-03-10 07:22:00,45.0,-99.9,30.26,NNE,32,10.0,14.0,-999,-99.99,,,-99.99,,2013-03-10 11:22:00,
2013-03-10 07:32:00,44.0,-99.9,30.26,NE,35,8.0,15.0,-999,-99.99,,,-99.99,,2013-03-10 11:32:00,
2013-03-10 07:42:00,45.0,-99.9,30.26,NNE,31,12.0,14.0,-999,-99.99,,,-99.99,,2013-03-10 11:42:00,
2013-03-10 07:52:00,45.0,-99.9,30.27,NNE,31,11.0,14.0,-999,-99.99,,,-99.99,,2013-03-10 11:52:00,
2013-03-10 08:02:00,44.0,-99.9,30.27,NE,39,9.0,13.0,-999,-99.99,,,-99.99,,2013-03-10 12:02:00,
2013-03-10 08:11:00,44.0,-99.9,30.27,NE,41,9.0,13.0,-999,-99.99,,,-99.99,,2013-03-10 12:11:00,
2013-03-10 08:21:00,45.0,-99.9,30.27,NE,44,9.0,12.0,-999,-99.99,,,-99.99,,2013-03-10 12:21:00,
2013-03-10 08:32:00,45.0,-99.9,30.27,NE,46,8.0,11.0,-999,-99.99,,,-99.99,,2013-03-10 12:32:00,
2013-03-10 08:42:00,45.0,-99.9,30.27,NE,49,6.0,9.0,-999,-99.99,,,-99.99,,2013-03-10 12:42:00,
2013-03-10 08:52:00,45.0,-99.9,30.27,NE,42,7.0,10.0,-999,-99.99,,,-99.99,,2013-03-10 12:52:00,
2013-03-10 09:01:00,45.0,-99.9,30.27,NE,40,7.0,11.0,-999,-99.99,,,-99.99,,2013-03-10 13:01:00,
2013-03-10 09:11:00,45.0,-99.9,30.27,NE,39,8.0,11.0,-999,-99.99,,,-99.99,,2013-03-10 13:11:00,
2013-03-10 09:21:00,45.0,-99.9,30.28,NE,38,9.0,12.0,-999,-99.99,,,-99.99,,2013-03-10 13:21:00,
2013-03-10 09:32:00,46.0,-99.9,30.28,NE,36,8.0,11.0,-999,-99.99,,,-99.99,,2013-03-10 13:32:00,
2013-03-10 09:42:00,46.0,-99.9,30.29,NE,39,7.0,12.0,-999,-99.99,,,-99.99,,2013-03-10 13:42:00,
2013-03-10 09:52:00,46.0,-99.9,30.29,NNE,33,8.0,11.0,-999,-99.99,,,-99.99,,2013-03-10 13:52:00,
2013-03-10 10:02:00,46.0,-99.9,30.29,NE,34,9.0,11.0,-999,-99.99,,,-99.99,,2013-03-10 14:02:00,
2013-03-10 10:12:00,46.0,-99.9,30.29,NE,41,8.0,11.0,-999,-99.99,,,-99.99,,2013-03-10 14:12:00,
2013-03-10 10:22:00,46.0,-99.9,30.29,NE,41,8.0,14.0,-999,-99.99,,,-99.99,,2013-03-10 14:22:00,
2013-03-10 10:32:00,46.0,-99.9,30.29,NE,37,11.0,14.0,-999,-99.99,,,-99.99,,2013-03-10 14:32:00,
2013-03-10 10:42:00,46.0,-99.9,30.29,NE,34,11.0,14.0,-999,-99.99,,,-99.99,,2013-03-10 14:42:00,
2013-03-10 10:52:00,46.0,-99.9,30.29,NE,37,9.0,14.0,-999,-99.99,,,-99.99,,2013-03-10 14:52:00,
2013-03-10 11:01:00,46.0,-99.9,30.29,NE,36,9.0,13.0,-999,-99.99,,,-99.99,,2013-03-10 15:01:00,
2013-03-10 11:11:00,46.0,-99.9,30.30,NNE,27,10.0,11.0,-999,-99.99,,,-99.99,,2013-03-10 15:11:00,
2013-03-10 11:21:00,46.0,-99.9,30.30,NNE,30,11.0,11.0,-999,-99.99,,,-99.99,,2013-03-10 15:21:00,
2013-03-10 11:32:00,46.0,-99.9,30.29,NNE,33,11.0,13.0,-999,-99.99,,,-99.99,,2013-03-10 15:32:00,
2013-03-10 11:42:00,47.0,-99.9,30.29,NE,35,9.0,13.0,-999,-99.99,,,-99.99,,2013-03-10 15:42:00,
2013-03-10 11:52:00,46.0,-99.9,30.29,NNE,30,13.0,14.0,-999,-99.99,,,-99.99,,2013-03-10 15:52:00,
2013-03-10 12:02:00,46.0,-99.9,30.30,NNE,32,11.0,13.0,-999,-99.99,,,-99.99,,2013-03-10 16:02:00,
2013-03-10 12:12:00,47.0,-99.9,30.29,NNE,33,12.0,14.0,-999,-99.99,,,-99.99,,2013-03-10 16:12:00,
2013-03-10 12:22:00,47.0,-99.9,30.29,NE,40,12.0,16.0,-999,-99.99,,,-99.99,,2013-03-10 16:22:00,
2013-03-10 12:32:00,47.0,-99.9,30.30,NNE,30,11.0,13.0,-999,-99.99,,,-99.99,,2013-03-10 16:32:00,
2013-03-10 12:42:00,47.0,-99.9,30.30,NNE,30,13.0,14.0,-999,-99.99,,,-99.99,,2013-03-10 16:42:00,
2013-03-10 12:52:00,47.0,-99.9,30.30,NNE,28,13.0,14.0,-999,-99.99,,,-99.99,,2013-03-10 16:52:00,
2013-03-10 13:01:00,47.0,-99.9,30.30,NNE,27,11.0,13.0,-999,-99.99,,,-99.99,,2013-03-10 17:01:00,
2013-03-10 13:11:00,47.0,-99.9,30.30,NNE,26,12.0,13.0,-999,-99.99,,,-99.99,,2013-03-10 17:11:00,
2013-03-10 13:21:00,47.0,-99.9,30.30,NNE,23,11.0,12.0,-999,-99.99,,,-99.99,,2013-03-10 17:21:00,
2013-03-10 13:32:00,47.0,-99.9,30.29,NNE,26,11.0,12.0,-999,-99.99,,,-99.99,,2013-03-10 17:32:00,
2013-03-10 13:41:00,47.0,-99.9,30.29,NNE,28,10.0,13.0,-999,-99.99,,,-99.99,,2013-03-10 17:41:00,
2013-03-10 13:52:00,47.0,-99.9,30.29,NNE,29,13.0,14.0,-999,-99.99,,,-99.99,,2013-03-10 17:52:00,
2013-03-10 14:01:00,47.0,-99.9,30.29,NNE,27,11.0,13.0,-999,-99.99,,,-99.99,,2013-03-10 18:01:00,
2013-03-10 14:12:00,48.0,-99.9,30.29,NNE,28,10.0,12.0,-999,-99.99,,,-99.99,,2013-03-10 18:12:00,
2013-03-10 14:22:00,48.0,-99.9,30.28,NNE,26,11.0,11.0,-999,-99.99,,,-99.99,,2013-03-10 18:22:00,
2013-03-10 14:32:00,48.0,-99.9,30.28,NNE,23,10.0,11.0,-999,-99.99,,,-99.99,,2013-03-10 18:32:00,
2013-03-10 14:42:00,48.0,-99.9,30.28,NNE,23,10.0,12.0,-999,-99.99,,,-99.99,,2013-03-10 18:42:00,
2013-03-10 14:52:00,48.0,-99.9,30.28,NNE,23,11.0,11.0,-999,-99.99,,,-99.99,,2013-03-10 18:52:00,
2013-03-10 15:02:00,48.0,-99.9,30.28,NNE,23,10.0,12.0,-999,-99.99,,,-99.99,,2013-03-10 19:02:00,
2013-03-10 15:11:00,48.0,-99.9,30.28,NNE,24,10.0,12.0,-999,-99.99,,,-99.99,,2013-03-10 19:11:00,
2013-03-10 15:22:00,48.0,-99.9,30.28,NNE,24,10.0,12.0,-999,-99.99,,,-99.99,,2013-03-10 19:22:00,
2013-03-10 15:32:00,48.0,-99.9,30.27,NNE,24,11.0,11.0,-999,-99.99,,,-99.99,,2013-03-10 19:32:00,
2013-03-10 15:42:00,48.0,-99.9,30.27,NNE,27,11.0,13.0,-999,-99.99,,,-99.99,,2013-03-10 19:42:00,
2013-03-10 15:53:00,48.0,-99.9,30.26,NNE,28,11.0,12.0,-999,-99.99,,,-99.99,,2013-03-10 19:53:00,
2013-03-10 16:02:00,48.0,-99.9,30.26,NNE,29,12.0,13.0,-999,-99.99,,,-99.99,,2013-03-10 20:02:00,
2013-03-10 16:13:00,49.0,-99.9,30.26,NE,34,11.0,14.0,-999,-99.99,,,-99.99,,2013-03-10 20:13:00,
2013-03-10 16:22:00,49.0,-99.9,30.26,NE,41,11.0,15.0,-999,-99.99,,,-99.99,,2013-03-10 20:22:00,
2013-03-10 16:33:00,49.0,-99.9,30.26,NNE,33,13.0,15.0,-999,-99.99,,,-99.99,,2013-03-10 20:33:00,
2013-03-10 16:43:00,49.0,-99.9,30.26,NE,34,11.0,15.0,-999,-99.99,,,-99.99,,2013-03-10 20:43:00,
2013-03-10 16:53:00,49.0,-99.9,30.26,NNE,33,10.0,15.0,-999,-99.99,,,-99.99,,2013-03-10 20:53:00,
2013-03-10 17:02:00,49.0,-99.9,30.26,NE,41,9.0,13.0,-999,-99.99,,,-99.99,,2013-03-10 21:02:00,
2013-03-10 17:12:00,49.0,-99.9,30.26,NE,36,11.0,15.0,-999,-99.99,,,-99.99,,2013-03-10 21:12:00,
2013-03-10 17:23:00,50.0,-99.9,30.26,NE,38,10.0,14.0,-999,-99.99,,,-99.99,,2013-03-10 21:23:00,
2013-03-10 17:33:00,49.0,-99.9,30.26,NNE,33,10.0,13.0,-999,-99.99,,,-99.99,,2013-03-10 21:33:00,
2013-03-10 17:43:00,50.0,-99.9,30.26,NE,40,9.0,13.0,-999,-99.99,,,-99.99,,2013-03-10 21:43:00,
2013-03-10 17:53:00,50.0,-99.9,30.26,NE,37,9.0,12.0,-999,-99.99,,,-99.99,,2013-03-10 21:53:00,
2013-03-10 18:03:00,50.0,-99.9,30.26,NE,40,9.0,13.0,-999,-99.99,,,-99.99,,2013-03-10 22:03:00,
2013-03-10 18:12:00,50.0,-99.9,30.26,NE,42,10.0,13.0,-999,-99.99,,,-99.99,,2013-03-10 22:12:00,
2013-03-10 18:23:00,51.0,-99.9,30.26,ENE,57,9.0,13.0,-999,-99.99,,,-99.99,,2013-03-10 22:23:00,
2013-03-10 18:33:00,51.0,-99.9,30.26,NE,56,9.0,13.0,-999,-99.99,,,-99.99,,2013-03-10 22:33:00,
2013-03-10 18:43:00,51.0,-99.9,30.26,NE,56,9.0,14.0,-999,-99.99,,,-99.99,,2013-03-10 22:43:00,
2013-03-10 18:53:00,51.0,-99.9,30.26,NE,49,8.0,14.0,-999,-99.99,,,-99.99,,2013-03-10 22:53:00,
2013-03-10 19:03:00,50.0,-99.9,30.26,NE,51,8.0,13.0,-999,-99.99,,,-99.99,,2013-03-10 23:03:00,
2013-03-10 19:13:00,49.0,-99.9,30.27,NE,51,9.0,11.0,-999,-99.99,,,-99.99,,2013-03-10 23:13:00,
2013-03-10 19:23:00,49.0,-99.9,30.27,NE,50,7.0,12.0,-999,-99.99,,,-99.99,,2013-03-10 23:23:00,
2013-03-10 19:33:00,49.0,-99.9,30.27,NE,47,8.0,10.0,-999,-99.99,,,-99.99,,2013-03-10 23:33:00,
2013-03-10 19:43:00,49.0,-99.9,30.27,NE,49,6.0,9.0,-999,-99.99,,,-99.99,,2013-03-10 23:43:00,
2013-03-10 19:53:00,48.0,-99.9,30.27,NE,48,6.0,9.0,-999,-99.99,,,-99.99,,2013-03-10 23:53:00,
2013-03-10 20:03:00,48.0,-99.9,30.27,NE,45,8.0,11.0,-999,-99.99,,,-99.99,,2013-03-11 00:03:00,
2013-03-10 20:13:00,48.0,-99.9,30.27,NE,54,6.0,10.0,-999,-99.99,,,-99.99,,2013-03-11 00:13:00,
2013-03-10 20:23:00,48.0,-99.9,30.27,NE,55,7.0,11.0,-999,-99.99,,,-99.99,,2013-03-11 00:23:00,
2013-03-10 20:33:00,48.0,-99.9,30.27,ENE,63,6.0,10.0,-999,-99.99,,,-99.99,,2013-03-11 00:33:00,
2013-03-10 20:43:00,48.0,-99.9,30.27,ENE,58,5.0,11.0,-999,-99.99,,,-99.99,,2013-03-11 00:43:00,
2013-03-10 20:53:00,48.0,-99.9,30.27,ENE,59,8.0,12.0,-999,-99.99,,,-99.99,,2013-03-11 00:53:00,
2013-03-10 21:03:00,48.0,-99.9,30.27,NE,55,7.0,9.0,-999,-99.99,,,-99.99,,2013-03-11 01:03:00,
2013-03-10 21:13:00,48.0,-99.9,30.27,ENE,58,8.0,11.0,-999,-99.99,,,-99.99,,2013-03-11 01:13:00,
2013-03-10 21:23:00,48.0,-99.9,30.27,NE,54,5.0,11.0,-999,-99.99,,,-99.99,,2013-03-11 01:23:00,
2013-03-10 21:33:00,48.0,-99.9,30.27,ENE,63,9.0,13.0,-999,-99.99,,,-99.99,,2013-03-11 01:33:00,
2013-03-10 21:43:00,48.0,-99.9,30.27,ENE,63,7.0,11.0,-999,-99.99,,,-99.99,,2013-03-11 01:43:00,
2013-03-10 21:53:00,48.0,-99.9,30.26,ENE,69,9.0,14.0,-999,-99.99,,,-99.99,,2013-03-11 01:53:00,
2013-03-10 22:03:00,48.0,-99.9,30.27,ENE,61,10.0,13.0,-999,-99.99,,,-99.99,,2013-03-11 02:03:00,
2013-03-10 22:13:00,48.0,-99.9,30.27,ENE,59,8.0,12.0,-999,-99.99,,,-99.99,,2013-03-11 02:13:00,
2013-03-10 22:23:00,48.0,-99.9,30.27,ENE,64,7.0,12.0,-999,-99.99,,,-99.99,,2013-03-11 02:23:00,
2013-03-10 22:32:00,48.0,-99.9,30.27,ENE,67,8.0,13.0,-999,-99.99,,,-99.99,,2013-03-11 02:32:00,
2013-03-10 22:42:00,48.0,-99.9,30.27,ENE,63,7.0,11.0,-999,-99.99,,,-99.99,,2013-03-11 02:42:00,
2013-03-10 22:53:00,48.0,-99.9,30.27,ENE,62,6.0,9.0,-999,-99.99,,,-99.99,,2013-03-11 02:53:00,
2013-03-10 23:02:00,48.0,-99.9,30.27,ENE,58,5.0,9.0,-999,-99.99,,,-99.99,,2013-03-11 03:02:00,
2013-03-10 23:12:00,48.0,-99.9,30.27,ENE,61,7.0,9.0,-999,-99.99,,,-99.99,,2013-03-11 03:12:00,
2013-03-10 23:22:00,48.0,-99.9,30.26,ENE,63,7.0,10.0,-999,-99.99,,,-99.99,,2013-03-11 03:22:00,
2013-03-10 23:32:00,48.0,-99.9,30.26,ENE,63,6.0,10.0,-999,-99.99,,,-99.99,,2013-03-11 03:32:00,
2013-03-10 23:43:00,48.0,-99.9,30.26,ENE,62,7.0,9.0,-999,-99.99,,,-99.99,,2013-03-11 03:43:00,
2013-03-10 23:53:00,48.0,-99.9,30.26,ENE,58,6.0,11.0,-999,-99.99,,,-99.99,,2013-03-11 03:53:00,